Location: Dattensoll
(49.9928°N, 9.8954°E)
Time: 16:41:30
(UTC+00:00)

Cosmos 1500 Rocket - Pass Details

Date: 19 May 2025
Orbit: 598 x 623 km, 82.5° (Epoch: 16 June)

Event Time Altitude Azimuth Distance (km) Brightness Sun altitude
Rises 22:45:57 0° 348° (NNW) 2,879 8.6 -19.7°
Reaches altitude 10° 22:48:10 10° 348° (NNW) 1,974 7.4 -19.7°
Maximum altitude 22:52:32 78° 262° (W) 633 3.5 -19.8°
Enters shadow 22:53:38 50° 187° (S) 790 3.6 -19.8°
